Date String (YYYY-MM-DD hh:mm:ss) UTC,Instrument flags,Ambient pressure (hPa),Sample flow (lpm),Bypass flow (lpm),Sample temperature (°C),Ambient temperature (°C),ASC tube jacket temperature (°C),LED temperature (°C),Box temperature (°C),Sample RH (%),Span deviation,Mass concentration (μg/m³),Mass concentration (μg/m³),Mass concentration (μg/m³)
DateTimeUTC,F1_M11,P_M11,Q1_M11,Q2_M11,T1_M11,T2_M11,T3_M11,T4_M11,T5_M11,U1_M11,ZSPAN_M11,X0_M11,X2_M11,X1_M11
2022-10-14 17:00:00,,0823.7,4.99,0.00,30.1,29.0,00.0,38.8,31.9,13.2,0000.0,0013.20,0005.07,0004.36
2022-10-14 17:01:00,,0823.7,5.01,0.00,30.1,29.0,00.0,38.8,32.0,13.5,0000.0,0013.48,0005.10,0004.38
2022-10-14 17:02:00,,0823.7,5.01,0.00,30.1,29.0,00.0,38.9,32.0,13.4,0000.0,0013.95,0005.15,0004.39
2022-10-14 17:03:00,,0823.7,5.00,0.00,30.1,29.1,00.0,38.9,32.0,13.4,0000.0,0013.97,0005.18,0004.42
2022-10-14 17:04:00,,0823.7,5.00,0.00,30.2,29.1,00.0,38.9,32.0,13.4,0000.0,0015.33,0005.24,0004.42
2022-10-14 17:05:00,,0823.7,4.99,0.00,30.2,29.1,00.0,38.9,32.0,13.2,0000.0,0015.55,0005.27,0004.43
2022-10-14 17:06:00,,0823.7,4.99,0.00,30.2,29.1,00.0,38.9,32.0,12.9,0000.0,0015.63,0005.28,0004.44
2022-10-14 17:07:00,,0823.7,5.00,0.00,30.2,29.2,00.0,39.0,32.0,13.2,0000.0,0015.86,0005.29,0004.44
2022-10-14 17:08:00,,0823.7,5.00,0.00,30.2,29.2,00.0,39.0,32.0,12.5,0000.0,0015.26,0005.35,0004.46
2022-10-14 17:09:00,,0823.6,5.02,0.00,30.3,29.2,00.0,39.0,32.1,12.6,0000.0,0014.34,0005.33,0004.46
2022-10-14 17:10:00,,0823.6,4.99,0.00,30.3,29.2,00.0,39.0,32.1,12.7,0000.0,0014.13,0005.33,0004.45
2022-10-14 17:11:00,,0823.6,4.99,0.00,30.3,29.2,00.0,39.0,32.1,13.1,0000.0,0014.84,0005.34,0004.46
2022-10-14 17:12:00,,0823.6,4.99,0.00,30.3,29.3,00.0,39.1,32.1,12.6,0000.0,0014.40,0005.31,0004.44
2022-10-14 17:13:00,,0823.7,5.02,0.00,30.3,29.3,00.0,39.1,32.1,12.9,0000.0,0013.73,0005.27,0004.42
2022-10-14 17:14:00,,0823.6,5.00,0.00,30.4,29.3,00.0,39.1,32.1,13.0,0000.0,0013.88,0005.27,0004.40
2022-10-14 17:15:00,,0823.7,4.99,0.00,30.4,29.3,00.0,39.1,32.1,13.3,0000.0,0013.01,0005.24,0004.38
2022-10-14 17:16:00,,0823.7,5.00,0.00,30.4,29.3,00.0,39.1,32.2,13.4,0000.0,0013.15,0005.25,0004.37
2022-10-14 17:17:00,,0823.6,5.01,0.00,30.4,29.4,00.0,39.1,32.2,13.3,0000.0,0013.91,0005.28,0004.36
2022-10-14 17:18:00,,0823.6,5.00,0.00,30.4,29.4,00.0,39.2,32.2,13.2,0000.0,0013.45,0005.24,0004.35
2022-10-14 17:19:00,,0823.6,4.99,0.00,30.5,29.4,00.0,39.2,32.2,12.9,0000.0,0013.45,0005.15,0004.32
2022-10-14 17:20:00,,0823.6,5.01,0.00,30.5,29.4,00.0,39.2,32.3,12.1,0000.0,0013.78,0005.13,0004.30
2022-10-14 17:21:00,,0823.6,4.99,0.00,30.5,29.4,00.0,39.2,32.3,12.1,0000.0,0013.70,0005.08,0004.28
2022-10-14 17:22:00,,0823.6,5.00,0.00,30.5,29.4,00.0,39.2,32.3,12.3,0000.0,0012.82,0005.04,0004.23
2022-10-14 17:23:00,,0823.6,4.99,0.00,30.5,29.5,00.0,39.3,32.3,11.6,0000.0,0012.49,0004.98,0004.19
2022-10-14 17:24:00,,0823.6,5.01,0.00,30.6,29.5,00.0,39.3,32.4,10.5,0000.0,0012.78,0004.95,0004.15
2022-10-14 17:25:00,,0823.6,4.99,0.00,30.6,29.5,00.0,39.3,32.4,10.7,0000.0,0012.82,0004.92,0004.10
2022-10-14 17:26:00,,0823.6,4.99,0.00,30.6,29.5,00.0,39.3,32.4,10.3,0000.0,0011.94,0004.79,0004.04
2022-10-14 17:27:00,,0823.6,5.00,0.00,30.6,29.5,00.0,39.3,32.4,09.6,0000.0,0011.06,0004.68,0003.98
2022-10-14 17:28:00,,0823.6,5.00,0.00,30.6,29.5,00.0,39.4,32.4,09.5,0000.0,0010.08,0004.56,0003.91
2022-10-14 17:29:00,,0823.6,5.00,0.00,30.6,29.6,00.0,39.4,32.4,09.6,0000.0,0010.14,0004.45,0003.83
2022-10-14 17:30:00,,0823.7,5.00,0.00,30.7,29.6,00.0,39.4,32.5,09.8,0000.0,0009.99,0004.37,0003.77
2022-10-14 17:31:00,,0823.6,5.01,0.00,30.7,29.6,00.0,39.4,32.5,09.9,0000.0,0009.25,0004.31,0003.71
2022-10-14 17:32:00,,0823.6,4.99,0.00,30.7,29.6,00.0,39.4,32.5,10.0,0000.0,0008.78,0004.23,0003.68
2022-10-14 17:33:00,,0823.5,5.00,0.00,30.7,29.6,00.0,39.4,32.5,09.8,0000.0,0008.57,0004.12,0003.63
2022-10-14 17:34:00,,0823.5,5.00,0.00,30.7,29.7,00.0,39.5,32.5,09.8,0000.0,0008.32,0004.03,0003.60
2022-10-14 17:35:00,,0823.5,4.99,0.00,30.7,29.7,00.0,39.5,32.5,09.6,0000.0,0008.02,0003.98,0003.57
2022-10-14 17:36:00,,0823.5,5.01,0.00,30.8,29.9,00.0,39.5,32.6,09.2,0000.0,0007.79,0003.91,0003.55
2022-10-14 17:37:00,,0823.5,5.00,0.00,30.9,30.1,00.0,39.5,32.8,09.5,0000.0,0007.77,0003.91,0003.53
2022-10-14 17:38:00,,0823.5,4.98,0.00,30.9,30.2,00.0,39.5,32.9,09.7,0000.0,0007.63,0003.89,0003.52
2022-10-14 17:39:00,,0823.4,5.01,0.00,31.0,30.1,00.0,39.5,32.9,09.8,0000.0,0007.54,0003.91,0003.53
2022-10-14 17:40:00,,0823.4,5.01,0.00,31.0,29.0,00.0,39.5,32.8,09.1,0000.0,0006.81,0003.91,0003.53
2022-10-14 17:41:00,,0823.4,5.00,0.00,30.9,27.4,00.0,39.5,32.5,09.3,0000.0,0006.61,0003.90,0003.53
2022-10-14 17:42:00,,0823.3,5.00,0.00,30.8,26.5,00.0,39.4,32.3,09.5,0000.0,0007.33,0003.90,0003.52
2022-10-14 17:43:00,,0823.4,5.01,0.00,30.7,26.7,00.0,39.4,32.2,09.4,0000.0,0007.42,0003.91,0003.51
2022-10-14 17:44:00,,0823.4,4.99,0.00,30.6,27.0,00.0,39.3,32.0,09.3,0000.0,0007.74,0003.94,0003.49
2022-10-14 17:45:00,,0823.4,5.01,0.00,30.5,27.4,00.0,39.3,32.0,10.0,0000.0,0007.77,0003.98,0003.48
2022-10-14 17:46:00,,0823.4,5.00,0.00,30.4,27.7,00.0,39.3,32.0,10.2,0000.0,0007.87,0004.01,0003.47
2022-10-14 17:47:00,,0823.3,4.99,0.00,30.4,28.0,00.0,39.2,32.0,10.2,0000.0,0008.05,0004.06,0003.48
2022-10-14 17:48:00,,0823.3,5.01,0.00,30.3,28.3,00.0,39.2,32.0,10.5,0000.0,0008.36,0004.12,0003.48
2022-10-14 17:49:00,,0823.3,4.99,0.00,30.3,28.4,00.0,39.2,32.0,09.8,0000.0,0008.46,0004.12,0003.46
2022-10-14 17:50:00,,0823.3,4.99,0.00,30.3,28.6,00.0,39.2,32.0,09.4,0000.0,0008.33,0004.03,0003.42
2022-10-14 17:51:00,,0823.4,5.01,0.00,30.3,28.7,00.0,39.1,32.0,09.0,0000.0,0008.30,0004.00,0003.39
2022-10-14 17:52:00,,0823.4,4.99,0.00,30.3,28.8,00.0,39.1,32.0,08.4,0000.0,0008.27,0003.99,0003.37
2022-10-14 17:53:00,,0823.4,4.99,0.00,30.3,28.9,00.0,39.1,32.0,08.1,0000.0,0007.78,0003.95,0003.34
2022-10-14 17:54:00,,0823.4,5.00,0.00,30.3,29.0,00.0,39.1,32.0,07.9,0000.0,0007.62,0003.90,0003.30
2022-10-14 17:55:00,,0823.3,5.00,0.00,30.3,29.0,00.0,39.1,32.0,08.2,0000.0,0007.35,0003.85,0003.27
2022-10-14 17:56:00,,0823.2,5.00,0.00,30.3,29.1,00.0,39.1,32.1,08.6,0000.0,0007.42,0003.80,0003.25
2022-10-14 17:57:00,,0823.2,5.00,0.00,30.3,29.1,00.0,39.1,32.1,08.4,0000.0,0007.00,0003.73,0003.21
2022-10-14 17:58:00,,0823.3,5.01,0.00,30.4,29.2,00.0,39.1,32.1,08.8,0000.0,0006.64,0003.65,0003.18
2022-10-14 17:59:00,,0823.2,4.99,0.00,30.4,29.2,00.0,39.2,32.2,08.6,0000.0,0006.26,0003.59,0003.16
